GFSCGP_250_spd_315.txt.gz
Wind_Speed
26 21 21 20 16 23 29 27 26 25 24 25 26 28 27 28 27 24 23 23 21 17 16 15 13 16 21 20 14 11 6 7 10 12 13 16 20 18 15 10 6 11 18 17
25 19 25 27 26 26 28 28 27 27 29 30 29 30 31 31 32 31 29 27 27 26 26 23 24 19 20 24 23 20 19 15 15 19 20 22 21 19 19 22 13 18 18 20
32 32 34 30 33 32 31 29 31 31 32 29 34 37 36 38 38 36 34 31 31 28 27 32 30 26 24 25 27 26 25 25 23 23 24 23 27 26 27 26 22 25 25 26
36 36 38 40 40 38 31 33 37 37 34 28 26 37 41 41 40 41 40 40 39 37 35 35 34 31 29 31 31 29 28 27 30 31 29 30 34 35 33 27 23 28 27 27
40 41 46 45 46 45 40 47 45 43 42 39 46 39 18 40 48 50 48 47 45 44 44 41 38 38 35 38 35 34 33 33 34 37 36 35 38 37 27 25 23 30 33 32
49 47 49 48 50 53 52 50 50 51 50 47 45 45 46 31 40 39 44 47 49 49 47 47 45 45 43 41 41 38 41 40 41 44 39 34 33 33 33 32 35 35 36 37
56 56 57 55 55 56 56 56 56 54 48 43 43 50 54 51 63 57 53 44 42 48 49 50 51 50 51 52 47 46 45 44 45 42 37 36 32 23 28 30 30 29 36 40
50 49 52 57 62 62 57 56 59 60 59 51 37 26 37 54 65 62 60 58 57 55 43 46 52 54 52 51 50 48 49 48 47 42 40 32 32 32 33 38 34 45 52 54
59 58 59 58 57 56 59 61 63 64 63 63 64 68 76 66 70 70 68 65 62 64 64 66 70 62 52 44 48 46 46 45 45 43 43 42 46 49 46 47 43 42 42 47
57 58 61 60 58 60 62 62 62 62 63 63 65 67 71 68 77 68 69 68 67 67 71 72 73 72 71 70 69 66 58 60 51 58 52 51 56 58 55 51 51 45 47 54
50 51 55 56 56 60 58 60 60 62 62 63 64 69 69 69 73 67 69 68 68 68 68 69 70 71 72 73 74 76 74 68 63 59 59 60 56 62 57 58 61 59 62 61
52 52 53 53 51 53 54 55 54 55 56 59 60 61 63 65 63 58 63 64 65 65 66 68 71 72 72 73 73 73 72 70 70 74 72 73 71 70 69 63 60 59 64 63
57 59 59 58 56 59 57 54 54 54 53 53 55 56 60 56 54 51 53 53 55 57 59 62 65 66 65 65 65 65 67 69 75 81 84 84 83 82 71 68 71 72 72 72
56 60 62 62 64 67 58 57 59 60 58 58 57 60 69 58 54 58 59 59 61 62 64 66 66 66 67 69 68 69 70 72 74 75 75 79 85 85 90 93 91 85 79 77
53 56 59 61 63 68 67 63 64 64 62 63 62 64 78 55 56 61 62 64 66 68 68 69 69 70 71 73 74 75 75 75 75 78 79 81 82 82 86 94 96 94 92 92
48 48 51 55 57 59 63 62 61 63 65 67 68 68 74 67 64 66 69 71 71 70 69 70 70 72 73 75 77 78 79 80 80 80 82 84 84 86 87 88 88 90 97 106
49 48 50 50 53 54 51 60 58 58 61 62 63 66 63 70 69 70 68 68 69 70 71 73 74 76 77 77 77 79 79 80 81 82 83 84 85 87 90 93 94 93 94 95
44 45 46 45 47 46 49 46 51 54 57 55 59 60 65 67 68 68 67 69 71 73 74 75 76 76 77 77 77 78 78 78 79 80 81 84 88 91 92 90 92 94 94 95
39 40 40 41 43 44 43 44 46 48 50 46 56 62 63 66 68 67 64 63 66 69 72 71 72 72 73 74 74 73 70 67 67 69 71 75 81 85 89 91 92 93 94 95
36 36 36 36 35 35 33 35 34 34 37 33 38 42 48 50 47 50 56 56 52 58 64 66 67 69 70 69 64 59 57 53 50 50 54 58 61 66 71 76 80 88 97 97
35 33 31 30 31 30 27 27 25 21 26 35 34 39 44 49 50 51 52 57 66 63 64 66 65 63 60 55 53 48 46 46 43 45 52 53 52 53 54 56 59 64 70 78
31 28 27 28 28 27 28 28 27 28 30 33 37 41 43 45 46 46 47 51 55 59 59 57 53 49 46 44 45 46 45 44 45 45 44 43 44 42 44 46 49 51 54 57
27 24 26 24 24 26 26 27 29 30 32 33 34 37 39 42 45 43 40 44 45 45 43 41 41 40 40 40 40 40 40 41 40 39 41 42 42 42 41 41 42 45 48 52
25 23 23 24 28 27 26 26 27 29 30 30 33 36 37 33 35 34 33 32 29 28 29 30 32 33 35 36 37 37 38 38 37 36 37 37 38 39 40 42 43 42 37 34
24 25 27 27 26 25 26 25 26 28 29 30 31 30 28 29 29 28 25 20 20 20 21 24 28 32 32 33 32 32 32 32 32 33 33 32 32 32 32 29 24 23 24 24
25 26 27 25 28 26 26 23 24 26 27 27 27 26 27 27 23 22 24 26 23 22 26 30 33 36 31 28 28 27 27 26 25 23 21 19 17 14 14 15 17 18 20 23

GFSCGP_250_spd_318.txt.gz
Wind_Speed
15 20 19 18 17 13 19 24 28 24 23 23 22 24 24 23 27 31 30 28 24 25 25 22 20 20 25 25 20 18 14 14 17 19 18 19 21 18 19 22 23 15 14 17
19 25 26 24 23 21 23 25 27 27 28 27 27 28 29 34 36 33 33 34 33 29 28 27 22 20 25 27 25 24 21 21 22 20 21 21 21 19 19 22 24 22 19 19
32 2 21 25 23 25 26 29 29 31 32 30 29 32 33 32 38 34 42 43 39 34 32 31 32 30 29 31 30 29 27 26 27 27 26 27 26 25 24 25 22 20 16 16
24 36 41 37 36 30 28 30 29 30 38 36 22 28 21 26 29 48 39 41 43 38 39 38 41 39 39 36 34 34 32 34 36 36 35 33 31 29 26 25 25 26 24 25
20 30 36 39 39 38 39 42 39 41 34 29 30 33 32 19 35 42 33 39 45 41 40 44 43 42 42 41 39 38 40 41 38 37 40 42 38 35 30 27 22 38 29 28
50 48 46 46 44 44 45 46 43 46 46 43 44 34 42 36 46 49 46 32 38 35 38 36 39 42 44 43 45 44 45 44 45 43 43 43 38 31 29 24 25 30 31 35
53 53 52 49 51 53 55 52 52 52 49 39 47 41 41 30 35 49 60 48 41 49 50 43 49 42 45 46 47 48 49 48 47 43 45 44 43 41 38 35 37 42 34 38
57 57 59 59 53 60 57 64 62 62 57 61 58 50 42 44 49 56 61 66 68 68 67 67 58 58 47 49 52 49 51 51 46 46 45 45 43 45 45 44 44 47 40 44
54 53 50 49 54 59 47 52 65 65 64 68 69 66 54 46 38 36 65 62 64 76 82 74 60 63 65 65 66 48 50 47 44 48 42 44 45 46 48 49 53 53 51 46
44 44 49 57 59 66 74 73 70 71 66 63 65 69 66 63 58 52 53 49 58 67 66 67 66 65 69 71 74 73 70 70 72 68 52 55 58 63 58 59 58 60 60 62
45 47 50 56 59 64 64 68 70 73 71 68 68 71 77 70 65 72 81 81 68 50 48 61 71 69 71 70 69 67 67 68 69 70 67 66 68 65 64 64 64 71 72 73
50 52 53 58 62 64 61 61 61 65 64 65 66 69 78 68 64 68 71 73 80 87 86 86 86 70 68 65 64 62 63 63 60 59 68 73 76 73 77 77 73 72 76 73
51 53 59 62 63 68 69 63 63 59 58 57 59 62 64 60 56 56 59 62 66 71 74 73 69 67 62 59 58 59 59 64 69 72 73 75 80 84 82 82 81 81 80 83
51 54 56 59 64 70 68 67 61 61 63 61 60 68 69 55 56 55 56 62 65 66 69 70 70 68 65 64 64 63 65 69 70 73 75 77 79 81 82 82 84 88 92 93
46 48 54 53 55 59 64 62 60 60 60 62 61 66 73 58 53 57 59 56 56 69 76 76 73 73 73 73 75 75 75 75 76 77 78 80 82 84 86 87 88 89 90 91
46 46 47 45 49 51 54 55 57 54 52 54 61 60 68 53 54 56 64 64 67 75 79 81 77 76 78 78 77 76 75 75 76 78 79 81 82 83 85 88 89 89 89 92
42 42 44 42 49 51 47 56 56 53 52 53 54 58 54 43 52 44 55 64 60 55 68 71 73 74 73 74 77 77 79 81 81 81 81 81 81 82 84 85 87 89 91 92
39 39 39 40 45 43 50 51 49 50 50 50 45 29 25 35 51 57 64 67 62 68 77 77 75 75 76 74 74 77 80 80 78 78 79 79 77 76 75 76 76 79 85 88
39 36 39 41 42 41 43 42 40 39 47 39 34 19 1 33 59 75 70 72 75 79 79 78 76 69 68 74 76 70 77 79 77 75 73 70 65 62 61 60 63 66 70 76
39 35 38 39 36 36 38 31 31 36 35 27 30 35 52 57 59 67 71 67 61 58 63 62 57 65 66 67 76 80 77 73 70 64 59 56 53 50 53 57 58 58 57 59
36 37 35 35 33 35 30 27 34 30 28 22 14 30 53 52 56 62 58 52 54 59 62 75 74 69 66 67 69 68 63 58 55 52 51 50 49 48 47 46 47 48 47 44
35 33 32 30 29 23 28 28 29 30 28 27 30 35 40 43 45 45 52 58 61 64 65 63 56 56 57 56 54 52 50 50 49 47 46 46 46 44 43 42 43 42 42 41
34 29 29 22 16 18 24 27 27 28 30 30 31 34 39 41 43 42 47 50 51 48 43 43 44 42 40 41 45 46 46 46 45 44 42 40 39 37 37 37 37 38 37 37
30 26 26 24 24 29 24 26 28 29 29 30 32 33 34 37 41 41 38 34 34 35 34 30 34 33 35 36 40 39 37 35 35 35 35 35 33 32 31 30 30 29 27 23
27 26 23 25 22 26 28 31 30 24 28 30 31 31 31 31 32 28 30 30 30 28 32 32 31 29 32 38 42 36 34 32 29 29 27 26 23 20 17 15 13 13 15 16
27 22 23 25 26 26 26 26 28 26 27 28 30 31 29 26 27 28 28 28 28 30 31 30 31 32 35 37 43 36 31 24 21 17 14 14 13 12 14 13 11 11 13 15

GFSCGP_250_spd_321.txt.gz
Wind_Speed
13 14 16 12 14 17 20 16 19 19 21 18 21 21 23 25 28 31 32 34 25 24 29 23 20 19 20 21 25 25 22 15 15 16 18 19 20 18 15 15 15 12 11 13
13 13 16 22 25 22 20 19 18 24 22 21 23 27 30 23 32 36 39 39 24 26 29 28 26 24 23 24 25 24 27 27 25 26 23 22 21 20 17 18 17 13 11 8
13 21 19 16 20 22 21 21 19 29 28 28 23 27 29 27 20 25 13 22 19 28 28 27 29 30 27 29 31 28 29 28 31 31 32 30 26 27 23 20 21 22 15 11
24 23 8 6 9 28 27 24 31 28 30 29 29 25 22 25 32 35 20 26 37 30 24 27 30 33 35 34 34 31 31 32 31 32 34 36 35 33 33 30 26 19 18 21
21 30 41 37 33 37 40 39 38 38 42 33 29 26 30 28 23 23 27 27 32 34 36 39 44 36 37 36 30 32 34 33 33 37 37 36 39 37 32 32 29 32 31 37
34 34 26 41 51 46 43 45 43 44 45 41 39 43 44 41 34 32 32 31 43 58 60 58 45 39 37 38 39 40 40 40 39 43 39 36 38 35 35 34 33 38 37 36
49 50 49 49 50 55 52 50 44 48 46 40 45 45 38 36 46 54 52 51 57 46 49 56 66 51 44 52 50 50 48 41 41 48 46 48 44 50 47 43 44 46 48 49
53 55 53 59 56 45 50 60 59 60 60 56 57 60 56 58 51 44 45 39 41 54 69 64 64 54 55 56 51 50 51 54 44 44 53 49 43 48 50 53 52 55 56 58
51 52 57 59 61 62 54 55 64 68 68 72 69 70 68 63 60 56 56 51 59 57 60 56 68 59 71 73 63 69 68 58 59 56 61 51 54 55 57 56 53 57 57 58
39 44 51 61 62 61 66 68 70 73 67 71 71 65 62 59 62 63 62 54 66 58 67 51 46 57 61 58 61 63 57 50 66 62 61 65 66 63 66 66 67 68 68 67
33 35 46 54 61 63 66 68 70 73 71 75 72 77 75 75 70 68 66 69 73 81 84 79 66 69 81 82 71 64 55 73 69 58 57 61 62 65 69 72 71 71 75 78
38 40 46 50 57 62 66 71 74 76 80 77 78 77 74 72 67 69 69 69 69 78 87 89 93 98 95 90 80 79 78 68 55 53 58 63 67 71 74 73 77 77 77 79
43 47 49 47 54 63 64 69 76 74 73 78 80 80 72 64 56 56 58 63 66 69 74 76 79 80 77 71 67 64 63 61 59 60 63 65 69 72 75 77 78 82 84 86
45 47 51 50 48 54 59 67 71 73 74 73 76 78 74 67 65 64 61 60 60 61 63 65 63 66 69 69 68 65 65 69 69 70 71 74 75 78 81 82 84 86 87 90
41 46 49 47 50 53 56 57 62 66 62 65 66 78 77 66 67 64 62 61 62 63 63 63 64 67 64 65 64 75 73 69 70 74 79 82 83 85 85 85 86 87 89 91
43 47 49 49 49 49 50 54 54 59 59 56 55 65 65 59 50 52 55 55 59 58 55 61 62 59 63 71 79 77 70 67 71 74 78 80 81 81 82 84 86 88 90 92
47 50 50 45 50 44 39 51 52 49 55 49 48 49 49 47 46 40 39 38 42 49 55 62 62 61 63 68 69 74 75 76 82 81 80 79 77 81 83 83 79 83 86 87
50 58 51 45 43 42 45 43 40 43 48 45 45 43 43 39 42 46 36 30 36 42 59 72 67 64 58 64 70 75 78 81 79 72 73 79 80 82 81 85 87 82 78 76
62 58 49 43 40 39 41 35 37 36 44 41 35 34 32 35 31 21 25 40 43 50 57 49 62 54 56 57 63 72 76 71 69 78 83 86 84 81 80 78 72 66 61 58
65 59 51 43 34 36 33 34 34 32 36 30 29 27 22 27 26 25 21 19 36 47 41 50 54 65 62 61 62 67 69 80 87 83 76 73 69 65 63 59 55 51 49 48
68 62 47 36 33 29 27 27 30 31 25 24 23 22 28 23 25 43 46 48 49 66 68 66 66 70 72 73 73 75 75 71 64 61 61 62 60 54 50 47 44 42 40 37
68 57 38 32 27 19 21 17 21 23 19 21 24 29 41 33 39 40 53 50 56 58 67 75 72 69 69 70 66 56 54 58 59 58 55 50 45 43 42 40 39 37 36 34
63 52 35 29 18 26 17 8 14 16 21 19 24 30 36 39 40 43 43 25 44 44 57 62 64 69 63 51 46 50 53 51 51 47 40 37 34 33 33 31 31 30 30 29
61 51 36 14 21 22 26 14 30 26 22 20 19 23 29 32 34 35 36 35 57 56 56 58 54 46 43 45 46 46 47 47 45 37 34 31 28 26 24 22 21 20 19 16
61 46 39 30 29 26 25 25 25 20 24 27 23 24 26 26 30 31 31 37 41 43 41 40 40 40 42 41 40 39 40 39 38 33 28 22 16 12 10 11 12 10 9 10
58 38 34 30 26 24 25 30 32 22 19 23 25 27 23 24 27 30 29 31 34 33 32 33 34 35 35 36 36 34 35 36 37 30 22 20 17 15 14 12 10 9 10 10

GFSCGP_250_spd_324.txt.gz
Wind_Speed
14 13 11 12 12 17 27 21 22 22 18 19 20 21 16 21 21 25 21 22 27 26 21 19 20 15 14 11 10 15 22 18 14 15 18 19 20 21 19 16 15 11 11 9
19 18 16 16 14 16 24 29 25 26 23 21 21 23 25 23 16 23 24 19 17 24 20 19 22 21 19 15 15 13 16 19 20 20 18 20 24 28 25 23 22 19 15 14
19 15 17 17 22 21 26 27 26 24 24 16 12 24 24 24 27 34 30 24 34 31 20 16 23 22 22 23 20 15 20 23 22 22 25 23 26 31 29 27 25 25 25 25
20 20 18 13 25 25 21 28 28 31 25 25 33 32 27 33 24 25 29 33 26 19 15 26 25 28 27 28 25 26 26 27 24 26 28 28 30 35 36 33 32 28 29 29
28 27 22 22 30 22 26 29 38 32 35 35 35 37 34 33 33 36 31 26 26 29 30 32 37 41 30 31 34 34 32 34 31 33 35 36 34 35 36 39 34 33 28 33
32 27 37 31 36 34 33 33 44 44 41 42 44 46 44 46 41 33 28 26 29 33 36 40 41 54 56 42 36 32 36 34 39 41 42 48 45 43 37 40 41 41 39 43
44 43 42 39 37 46 50 56 59 59 57 54 52 54 53 57 56 51 46 45 44 45 51 30 33 40 44 50 44 38 38 45 48 52 52 55 55 48 43 41 46 51 51 50
45 48 51 54 57 57 57 53 60 64 66 67 67 59 62 60 59 56 49 42 42 40 43 33 38 41 51 47 42 43 49 50 50 50 53 56 55 47 48 54 54 54 54 57
47 49 53 59 62 64 68 72 74 75 75 73 73 71 61 63 59 59 54 51 53 52 50 39 35 40 47 55 56 58 52 52 52 51 52 46 50 47 52 55 63 65 63 65
43 44 50 54 57 62 62 68 70 74 74 76 79 79 75 71 67 64 66 64 66 61 56 67 62 63 73 65 52 56 52 46 52 52 56 67 53 56 66 71 67 64 69 76
36 37 43 47 52 51 53 55 57 60 65 68 73 76 77 80 79 76 68 68 71 70 73 73 76 77 73 65 53 60 57 66 70 72 67 60 62 69 80 81 78 76 79 77
37 38 43 49 55 57 57 59 61 60 63 70 72 74 75 75 75 74 68 59 65 66 69 72 76 78 74 76 77 80 89 86 82 69 66 67 77 81 81 80 77 78 77 78
41 43 45 48 54 58 60 64 67 66 63 65 71 75 79 78 78 76 75 74 76 82 81 80 73 80 79 78 80 82 85 77 74 74 82 87 81 72 71 72 73 75 79 82
38 44 48 51 54 56 62 64 63 67 67 67 67 69 76 78 80 81 80 80 81 79 73 70 65 63 66 74 82 86 79 83 83 82 80 80 85 78 75 73 79 76 78 80
41 43 47 54 57 56 59 64 67 66 67 68 69 68 65 67 73 79 82 80 78 78 71 70 69 70 69 69 70 72 77 78 80 81 80 78 72 78 80 82 79 84 88 93
46 46 46 50 51 57 59 61 65 66 61 60 59 55 57 59 58 62 61 61 64 70 69 64 63 65 65 65 65 61 56 63 68 67 68 71 74 74 76 81 86 92 93 79
48 50 49 50 50 55 57 60 56 54 52 53 52 47 46 48 50 49 48 49 48 53 54 53 53 55 50 58 62 62 56 60 63 65 67 66 68 74 82 84 79 78 80 81
45 50 53 55 53 56 56 53 48 45 46 44 42 40 39 38 41 45 46 45 45 46 46 48 48 48 48 50 54 54 56 61 58 57 64 75 82 85 82 81 81 81 78 75
48 54 59 59 57 55 52 50 45 41 40 39 37 34 34 36 37 42 41 43 43 46 41 42 44 49 47 48 45 48 50 54 57 67 73 74 76 75 74 74 72 71 71 69
51 57 64 59 59 55 46 45 41 39 34 33 31 21 26 32 33 34 34 24 25 31 32 32 34 41 49 51 54 56 62 68 76 78 73 73 70 69 67 67 69 68 63 59
59 62 66 60 62 56 46 43 38 28 24 21 23 28 31 28 26 31 28 26 18 32 36 39 41 44 50 59 62 69 74 76 75 71 63 63 63 62 64 63 57 51 47 44
61 62 65 61 64 56 46 35 28 14 4 7 24 29 28 27 27 26 28 27 28 29 34 33 37 44 55 56 59 59 63 58 56 57 58 61 62 60 55 48 44 41 38 35
68 67 66 65 64 53 41 34 26 12 10 6 20 37 33 31 27 28 33 37 37 39 41 40 44 45 49 56 59 56 50 50 51 52 54 55 53 49 41 36 32 29 27 26
73 75 69 69 70 50 35 34 24 19 21 18 28 31 26 28 27 26 27 32 35 38 37 39 44 48 54 51 48 47 46 47 46 46 46 46 43 34 31 27 19 17 14 11
74 78 75 72 71 47 33 35 25 28 22 24 24 22 24 26 28 27 28 33 35 38 41 42 42 46 47 43 42 42 43 46 47 41 41 41 35 29 27 24 22 18 14 9
79 78 75 79 67 42 33 27 26 32 31 30 23 25 22 21 23 23 25 30 32 31 34 34 35 32 33 35 38 41 42 43 42 40 38 38 34 29 26 22 21 15 10 10

GFSCGP_250_spd_327.txt.gz
Wind_Speed
17 14 12 12 14 13 17 22 20 19 20 21 19 19 20 19 19 21 20 16 11 10 12 18 17 19 18 20 19 19 18 12 7 8 14 19 15 14 16 24 20 19 22 22
20 18 19 19 20 19 21 20 20 24 28 25 26 26 24 24 24 23 24 26 22 21 24 25 21 20 20 23 24 21 22 18 19 19 20 19 28 19 18 22 31 23 22 26
27 26 24 25 23 24 28 29 27 29 30 30 29 31 31 28 23 25 27 27 27 28 25 31 23 17 19 23 22 25 28 27 25 24 25 23 27 24 23 26 30 31 28 30
27 26 27 27 27 24 28 29 31 30 28 31 29 34 37 32 30 30 29 30 29 27 26 25 26 28 25 26 32 32 35 32 34 37 30 29 31 30 31 27 32 39 38 34
26 26 27 28 26 24 31 29 28 31 31 32 36 37 37 39 41 40 35 38 33 40 32 28 33 31 31 39 41 39 38 38 35 44 34 40 32 38 47 41 37 38 32 31
32 33 32 31 32 34 34 39 38 42 46 39 38 43 45 42 42 47 49 46 39 34 38 39 35 36 42 36 38 41 39 35 44 35 36 33 39 48 48 48 40 34 40 40
40 41 42 44 46 45 47 48 47 50 46 46 47 49 52 54 52 51 53 53 52 48 51 51 41 47 46 34 42 40 46 44 38 39 35 37 42 49 49 43 42 46 38 41
46 48 50 52 54 51 51 51 54 56 59 58 57 59 62 65 68 70 71 69 57 57 57 55 54 44 38 35 39 36 41 43 41 35 38 40 39 39 30 29 34 42 44 48
45 49 51 54 59 60 63 65 66 66 64 65 68 71 71 67 70 75 75 74 69 55 59 56 50 49 49 49 46 37 42 41 37 41 46 44 32 31 39 49 49 55 58 61
38 39 44 49 52 54 57 58 61 64 65 67 71 76 80 80 78 72 74 77 72 65 65 56 56 56 55 51 47 48 52 43 47 57 52 51 45 53 58 59 63 67 65 65
32 35 39 44 48 50 52 53 54 58 60 62 61 66 66 66 65 66 69 72 75 76 68 68 70 68 66 64 59 50 50 52 59 25 38 44 57 60 64 70 74 72 75 76
35 37 40 44 48 51 55 58 60 61 62 63 64 67 70 71 71 72 69 72 74 76 74 69 70 74 75 81 77 71 67 63 61 54 45 50 54 63 70 75 82 84 84 85
38 41 44 48 53 55 56 60 63 65 64 65 65 67 70 73 72 70 72 73 75 76 76 77 72 74 76 72 81 81 80 75 73 75 76 83 84 89 81 81 83 92 97 95
39 42 46 50 51 55 58 62 64 64 63 61 63 65 67 69 72 72 72 72 74 76 76 75 76 73 77 74 70 71 73 75 80 83 92 100 102 94 94 94 97 95 90 92
40 43 46 50 52 55 60 64 66 65 67 63 63 63 68 68 70 70 70 69 67 69 71 72 74 74 75 80 82 83 80 77 79 79 83 86 87 92 94 94 96 95 95 92
43 45 45 47 48 51 55 61 61 64 65 64 59 60 61 59 57 57 58 60 61 61 63 64 65 65 67 69 73 75 76 77 79 81 85 88 89 87 88 86 89 88 89 87
46 47 47 47 51 57 59 61 59 59 59 53 48 48 50 50 46 44 45 48 51 51 52 50 52 53 56 58 60 62 63 67 72 76 77 77 76 78 76 75 75 75 76 78
45 46 46 47 52 57 64 62 60 56 53 49 44 40 37 37 38 39 37 40 42 43 46 47 45 46 49 49 54 53 56 55 55 58 58 58 63 68 69 69 75 80 86 90
47 46 47 50 54 56 64 60 60 61 53 48 45 39 33 29 32 37 35 35 36 37 42 41 41 42 40 39 41 44 49 50 50 50 57 61 63 67 73 76 81 88 93 88
48 49 51 52 54 59 67 62 59 61 55 43 37 26 23 22 25 28 20 25 28 28 29 27 28 27 26 31 30 32 36 41 45 53 59 63 65 70 74 76 76 77 68 63
54 55 56 58 59 64 70 64 62 62 46 35 20 6 10 15 20 27 25 22 22 22 21 21 25 31 33 35 38 41 46 49 52 57 63 66 68 69 71 71 60 54 54 51
56 57 58 59 64 66 75 66 63 63 39 26 24 15 17 16 21 26 25 20 20 23 26 29 26 32 33 31 35 39 42 47 51 54 56 57 58 56 56 54 51 46 37 32
60 60 61 63 65 70 76 74 68 59 34 26 25 21 22 19 25 29 29 28 21 24 30 38 37 33 34 40 39 44 49 48 50 50 49 49 49 47 47 46 42 35 30 27
66 66 68 69 73 76 79 77 72 53 30 24 27 26 21 24 33 26 25 28 23 23 24 31 36 39 39 38 39 40 40 41 41 41 43 45 47 45 41 42 37 33 30 26
68 70 73 74 77 81 80 75 67 39 27 25 32 26 36 35 29 27 29 26 25 24 24 28 31 34 35 36 36 35 33 35 36 38 42 46 45 39 37 37 34 29 26 19
70 75 78 79 82 81 78 69 52 26 29 28 36 40 32 29 27 27 25 28 27 25 25 24 27 31 33 34 31 30 31 32 35 38 40 38 37 39 37 33 34 27 23 18

GFSCGP_250_spd_330.txt.gz
Wind_Speed
16 21 16 14 16 17 22 18 16 15 15 14 19 24 22 21 22 21 20 19 18 17 15 18 19 15 20 20 19 12 14 16 17 17 14 15 14 16 18 24 20 22 26 23
22 23 21 21 22 24 23 24 23 20 20 24 24 25 27 27 27 30 29 24 22 21 16 20 25 22 22 20 17 19 19 17 23 25 26 22 19 20 21 22 24 27 26 31
26 25 26 27 28 29 31 30 28 27 26 30 30 30 26 28 31 30 32 30 27 24 24 22 24 26 24 25 22 18 19 22 27 30 31 31 29 32 27 28 27 34 36 39
30 31 30 32 34 33 33 33 33 31 33 36 36 35 31 31 30 33 35 36 33 31 27 29 31 30 28 25 28 25 25 30 31 29 35 34 35 36 38 37 36 38 40 38
35 36 37 36 35 35 35 34 35 34 34 34 33 38 42 39 40 39 38 38 40 39 38 36 36 35 28 28 31 35 36 38 33 34 32 36 37 37 36 37 38 41 42 33
36 37 35 37 37 36 35 34 36 36 38 42 42 46 48 51 46 45 45 45 46 46 47 44 39 39 39 43 40 40 39 45 41 36 34 32 36 36 36 39 42 40 36 36
39 40 41 41 41 42 43 43 43 45 48 51 54 50 55 57 55 52 52 51 52 55 56 54 55 60 54 48 48 50 45 43 42 38 41 36 37 35 39 43 40 41 33 38
44 45 47 47 48 49 50 52 53 55 56 55 51 57 62 63 62 59 59 61 62 63 67 71 71 68 60 54 48 50 49 46 43 47 37 38 33 33 40 31 22 27 22 38
44 44 46 47 48 50 52 54 56 58 61 63 67 69 71 69 69 69 71 73 76 79 79 79 76 65 61 55 55 51 50 51 44 43 44 38 36 32 38 42 41 40 43 54
37 40 40 41 42 43 42 44 45 47 48 49 52 55 57 60 62 62 66 70 74 76 77 76 75 70 55 57 55 49 49 51 45 41 36 35 38 43 47 48 49 48 55 58
28 30 34 36 38 40 43 46 48 51 53 54 54 56 58 62 63 64 64 66 70 73 74 74 71 69 67 62 55 53 55 51 46 46 46 44 42 44 51 51 67 58 59 61
28 32 35 39 42 44 47 49 50 52 54 58 58 56 59 61 66 67 65 64 66 68 69 73 74 74 73 71 67 67 54 53 57 51 54 55 58 58 69 69 66 72 76 76
32 36 39 42 45 46 48 49 50 52 54 54 55 56 60 61 62 65 67 67 67 68 70 72 73 75 76 74 72 66 69 71 65 64 61 62 71 63 70 71 72 74 76 85
34 35 38 42 45 50 53 54 56 59 60 58 60 58 60 60 62 64 66 69 71 71 72 73 73 73 71 72 74 74 74 74 74 78 82 82 85 85 79 79 78 77 82 85
32 36 41 44 45 47 52 55 56 58 65 67 64 62 61 60 60 62 64 64 65 68 67 66 69 70 68 65 68 74 73 70 70 69 73 71 73 89 95 99 99 96 97 98
36 40 41 46 48 50 51 52 55 58 61 65 63 61 59 57 56 55 55 56 54 53 55 56 55 55 55 55 59 59 69 78 79 79 81 82 84 85 88 89 92 93 94 96
39 41 44 46 47 50 53 53 56 58 59 64 64 62 59 58 52 47 44 42 40 41 45 45 43 43 42 47 48 49 51 60 71 78 80 82 82 82 84 86 89 91 94 94
42 45 46 47 49 51 54 57 59 61 62 65 66 64 62 58 50 39 32 36 37 37 39 38 32 29 34 39 38 39 39 43 46 52 59 64 64 66 68 68 66 65 65 70
44 46 48 50 51 53 56 56 61 62 66 68 70 68 66 57 44 30 32 24 26 32 36 34 26 24 30 32 33 36 35 36 38 40 41 43 46 50 55 59 62 65 70 74
46 49 51 52 54 55 60 61 64 65 68 72 70 69 63 46 33 25 14 17 19 20 22 24 20 22 25 24 22 22 25 26 27 28 31 33 39 45 50 54 59 63 67 73
50 52 55 56 59 62 64 65 70 71 73 78 74 71 58 36 28 25 11 14 16 18 19 20 19 23 22 19 23 28 27 28 29 29 36 42 44 49 53 56 57 62 66 71
54 56 57 59 62 64 67 71 76 75 81 83 79 68 49 39 35 25 13 12 19 20 17 19 21 23 25 26 24 28 28 31 36 40 44 48 50 50 51 54 56 55 56 55
58 59 59 62 65 67 69 73 79 77 84 86 76 63 43 36 35 29 18 18 25 21 20 20 21 23 23 28 33 30 31 35 37 40 42 43 42 44 47 47 47 48 44 42
62 61 62 64 67 69 73 77 81 84 89 82 73 53 32 31 29 32 16 25 27 26 22 21 24 28 28 30 34 37 37 37 37 36 35 36 39 42 43 43 41 34 36 36
63 63 64 65 69 72 78 83 85 90 89 75 53 27 26 24 24 24 26 23 28 26 21 21 24 25 29 31 32 32 34 34 32 30 30 29 31 34 36 35 35 35 35 33
63 65 65 66 69 74 79 85 89 90 80 54 30 24 27 28 28 26 29 27 31 26 22 23 23 21 24 24 25 23 24 25 26 26 31 35 37 37 38 38 37 35 35 33

GFSCGP_250_spd_333.txt.gz
Wind_Speed
18 18 22 18 18 16 15 19 19 19 19 19 17 18 19 19 21 22 21 18 18 15 15 14 17 19 15 13 17 18 18 19 20 17 17 20 21 23 18 15 16 19 17 18
21 20 20 25 21 20 21 22 24 27 26 28 24 22 26 26 27 27 27 26 24 23 20 20 18 17 23 23 17 20 21 23 21 22 22 21 24 28 29 28 28 24 25 23
24 26 25 26 27 24 26 26 28 29 31 34 32 32 33 33 32 31 25 27 26 25 28 27 22 19 22 24 24 25 23 25 25 24 26 25 29 32 30 31 33 32 33 32
26 26 27 28 27 28 28 32 31 33 30 32 35 36 34 33 32 31 36 34 35 32 31 34 36 32 29 25 30 29 28 26 28 29 35 35 31 36 32 30 33 35 33 28
29 30 30 29 31 33 37 37 37 36 35 32 36 39 36 34 34 39 43 44 45 42 39 39 40 40 37 33 32 29 35 34 34 37 35 39 43 35 37 32 35 35 37 35
33 34 35 35 35 37 37 37 37 39 39 40 40 42 47 48 50 52 50 49 50 49 48 44 46 45 40 39 37 40 44 52 47 41 41 47 44 44 35 37 40 41 39 42
33 35 36 37 38 39 40 41 43 45 46 48 49 52 55 58 58 57 55 55 59 60 60 57 51 51 49 50 47 51 56 54 52 51 52 45 40 41 39 36 37 41 38 29
38 38 40 41 43 45 45 46 46 49 51 53 56 57 60 60 62 66 67 69 66 63 62 63 62 61 61 60 58 64 59 51 48 47 53 42 42 45 42 35 39 43 32 31
38 39 40 41 42 43 43 43 42 40 40 40 43 47 52 52 52 53 55 57 59 61 62 62 65 69 70 70 71 71 67 62 47 51 45 47 45 44 38 37 47 52 51 45
39 37 35 33 31 31 31 33 34 37 39 42 47 51 52 57 57 58 58 60 60 62 66 68 68 67 66 64 62 60 58 58 51 52 55 55 54 44 46 43 45 51 50 56
25 25 26 28 30 32 34 36 39 41 43 44 45 50 52 55 57 60 60 61 61 62 63 66 66 66 67 67 66 65 62 55 45 50 55 59 58 47 57 54 54 54 62 57
22 24 27 30 33 35 36 37 39 42 44 47 47 50 52 53 56 56 58 57 57 57 59 63 66 67 65 65 66 63 59 56 53 55 58 61 59 60 61 62 66 65 62 63
25 28 31 32 32 34 37 39 41 42 44 46 46 50 52 56 59 59 60 59 57 56 57 60 64 67 67 68 67 64 58 56 56 69 68 62 70 65 72 69 76 77 72 72
29 30 30 32 35 39 41 41 44 47 48 49 52 53 56 59 60 61 61 60 58 58 57 57 59 60 65 70 69 67 60 58 59 60 71 78 74 73 75 76 80 80 79 75
26 28 32 35 37 40 45 44 44 46 47 49 48 50 52 58 61 63 64 60 57 56 57 57 51 51 54 58 62 62 62 62 59 62 65 76 83 88 81 78 83 84 87 90
29 31 34 38 38 42 45 45 47 48 49 49 52 56 59 59 63 65 64 59 58 54 53 50 42 41 40 42 45 49 50 52 55 60 64 67 72 79 87 88 88 85 86 87
33 35 37 40 42 44 49 49 51 52 54 55 55 60 64 64 68 69 68 61 58 50 45 41 34 27 29 31 35 37 38 43 47 52 54 57 62 68 73 80 80 83 84 85
38 40 42 43 45 47 53 54 56 57 60 59 61 64 68 68 70 71 70 64 51 40 42 38 29 26 24 29 26 28 29 42 42 44 45 48 53 56 60 65 73 79 85 89
42 44 46 47 48 51 56 56 58 59 61 63 65 69 72 73 76 68 69 62 43 37 35 26 16 25 21 22 25 28 29 32 32 34 37 39 41 44 47 49 51 55 59 63
44 47 49 51 52 53 56 57 60 61 60 65 70 73 77 79 78 75 59 50 34 31 20 15 18 15 19 17 22 25 26 23 24 27 26 27 29 30 33 38 41 44 49 54
47 48 51 52 54 56 58 60 62 61 63 68 73 78 79 85 82 73 50 36 27 26 11 13 15 13 17 14 15 16 16 21 24 26 28 29 30 32 36 40 45 50 55 58
51 52 54 54 57 59 58 61 60 62 67 72 79 82 84 86 78 60 41 30 28 26 12 10 17 16 19 21 21 19 19 20 23 24 27 32 36 39 43 44 47 50 49 50
53 53 53 56 59 59 61 62 61 64 69 75 81 86 88 81 66 45 25 30 28 21 17 14 18 20 22 20 18 19 21 21 23 27 30 33 35 37 39 38 37 40 42 45
58 56 57 60 62 61 63 62 65 69 74 80 85 91 85 74 45 22 22 24 26 23 13 17 19 18 21 19 20 21 24 26 32 32 31 31 31 30 30 29 34 37 34 35
61 58 60 64 64 64 67 66 69 74 76 83 86 91 78 58 24 14 18 21 16 19 17 19 18 21 22 19 20 22 23 22 20 20 21 22 22 25 31 33 36 38 39 38
62 62 63 64 65 67 67 68 70 73 77 81 84 81 71 36 21 12 10 16 18 20 25 26 24 21 22 21 21 22 23 23 24 26 26 28 30 35 38 40 41 40 40 44

GFSCGP_250_spd_336.txt.gz
Wind_Speed
20 19 19 17 19 19 17 17 17 19 19 18 22 23 25 26 23 22 20 19 21 21 24 20 20 17 18 18 17 18 17 17 18 18 22 18 18 16 20 24 20 19 19 20
19 19 21 22 22 24 21 21 19 21 22 25 24 26 28 30 29 28 29 25 23 20 22 25 24 26 24 22 20 22 21 19 21 20 19 21 27 25 28 28 31 28 26 25
24 23 22 23 25 24 27 28 24 25 29 30 32 31 29 30 32 32 32 30 23 24 24 25 26 27 32 30 26 25 28 28 26 29 27 23 23 29 30 32 34 34 30 28
26 27 26 26 26 27 28 29 30 31 35 35 36 35 34 35 36 36 34 31 30 33 35 37 34 33 34 40 40 38 32 32 30 33 33 31 28 36 35 36 38 33 36 32
27 28 30 31 32 32 33 34 34 37 40 40 40 40 39 38 39 39 40 41 45 46 46 46 44 42 38 38 43 46 39 38 31 36 38 35 41 39 38 42 41 38 37 36
30 30 31 32 33 34 36 37 37 39 41 42 44 46 46 46 47 48 50 51 52 53 54 53 51 50 48 48 47 48 48 42 38 40 44 48 47 44 44 47 43 41 35 39
30 31 31 32 33 35 37 39 42 44 45 46 47 48 49 49 50 49 49 50 52 53 53 54 54 53 58 55 51 49 46 43 45 50 52 53 53 54 50 51 45 42 41 40
33 34 35 37 38 40 41 41 42 41 40 39 39 39 39 40 41 45 47 47 49 52 54 55 55 54 52 54 53 54 53 52 53 54 47 48 50 51 47 46 43 44 44 45
36 37 36 37 37 37 36 34 31 29 31 35 39 41 43 42 43 44 45 47 51 53 54 55 57 59 59 59 55 54 57 63 65 64 61 49 50 50 41 47 47 52 48 44
36 36 36 36 36 32 29 27 27 30 32 35 39 41 43 47 50 49 49 50 50 51 51 53 55 57 60 62 61 58 55 63 61 59 60 53 45 36 36 39 52 48 48 54
33 30 29 27 24 24 25 28 30 31 34 37 38 41 43 45 47 49 49 49 49 49 50 51 54 55 57 59 59 60 60 64 58 56 51 51 51 55 50 53 47 45 57 59
25 22 21 22 24 27 28 28 31 34 37 38 40 43 41 43 45 44 48 49 51 54 53 53 54 53 53 54 57 60 61 61 57 53 49 57 62 65 72 75 70 74 79 72
21 21 23 25 27 27 27 30 34 37 39 43 42 45 46 48 51 52 54 58 60 60 62 56 51 49 49 51 54 58 61 62 56 52 58 62 72 70 74 77 80 79 79 77
23 25 27 27 28 29 31 33 35 39 40 42 45 46 48 51 53 55 57 59 63 63 64 62 52 47 46 50 52 54 58 61 59 57 52 61 62 76 70 72 75 76 79 77
27 29 28 28 31 36 38 38 39 41 44 46 48 49 51 54 55 58 62 63 67 69 70 63 55 48 43 45 45 45 47 50 53 57 62 66 67 67 79 79 77 76 76 83
28 28 30 33 35 38 42 42 42 45 48 50 51 52 54 58 57 61 65 68 69 71 71 70 59 44 39 39 36 37 39 42 45 48 52 62 65 71 71 84 92 90 88 86
30 31 33 38 38 41 44 46 47 50 53 53 54 57 58 59 61 64 70 74 74 74 74 69 53 37 35 35 34 30 30 32 36 40 46 54 59 66 72 73 80 84 86 86
33 34 36 40 42 43 46 48 50 52 55 56 57 59 60 61 64 69 74 77 82 81 77 62 40 28 27 29 24 26 29 24 29 34 37 39 45 51 57 66 72 75 75 79
36 39 40 42 41 44 48 51 52 53 55 57 60 60 59 62 69 75 79 79 85 81 64 46 27 25 21 23 28 30 31 28 29 29 29 29 30 34 39 43 47 49 49 51
39 40 41 43 45 46 49 51 52 54 56 57 61 62 64 69 74 81 82 87 81 64 50 34 22 20 24 23 27 21 20 21 23 25 26 30 30 30 32 33 34 36 39 41
42 43 44 47 48 50 50 53 55 57 59 61 64 64 68 72 77 85 88 85 65 47 32 22 18 17 15 14 18 21 19 16 17 19 19 20 23 27 29 31 34 36 40 44
46 46 48 49 53 54 54 56 58 61 62 63 66 66 71 75 83 86 90 73 46 25 18 20 13 13 14 14 15 18 23 20 21 20 25 26 29 32 33 36 41 42 44 47
53 54 52 53 58 57 57 60 61 61 63 66 66 68 72 78 84 87 84 55 24 11 21 17 14 10 11 13 18 20 21 22 21 26 28 29 30 31 35 38 40 40 42 43
62 61 61 61 64 62 63 63 64 64 65 66 66 69 74 79 83 87 74 39 7 19 21 17 15 12 11 14 18 18 19 22 24 23 26 28 28 31 32 31 30 30 32 37
68 63 65 65 67 66 66 65 65 65 66 66 67 70 73 76 78 80 62 24 16 17 21 19 16 12 16 17 19 20 23 20 21 24 26 25 27 27 27 28 31 34 36 37
71 65 65 67 68 67 67 66 66 67 67 66 69 71 72 73 74 71 50 16 14 15 11 12 15 23 23 21 24 23 24 24 24 25 27 29 31 32 33 33 33 36 40 40